STARLINK-32573, 61725

Orbit data source: Space-Track

STARLINK-32573, 61725 is a payload satellite owned by SpaceX/Seattle (US) in LEO that was launched on Wed, 30 Oct 2024 UTC via an FALCON 9 launch vehicle from the Air Force Eastern Test Range (AFETR). Payloads include a variety of satellites, spacecraft, and rockets equipped with specific instruments for various scientific and technological missions. These include communications satellites like Starlink; space stations such as the ISS; scientific satellites like the Hubble; Earth observation satellites from companies like Planet Labs, Umbra, and HawkEye 360; GPS; miniature CubeSats for education and research; and military/defense satellites.

Loading next visibility...
STARLINK-32573 details
Identifier
61725, 2024-196U
Orbit
LEO
Last TLE update1 day ago
Origin
Flag of USSpaceX/Seattle (US)
ManufacturerSpaceX/Seattle
MissionOperational spacecraft
Bus & MotorSTARLINK V2M, Unknown motor
Mass730 kg wet, ~700 kg dry
Launch date (UTC)
2024-10-30 (1 month ago)
Launch vehicle
FALCON 9
Launch site
Air Force Eastern Test Range (AFETR)
Object type
Payload
Rocket body
Debris
Shape & HBRUnknown
Radar Cross SectionLarge (>1 m²)

Expand to show TLE details & history

TLE from 1 day ago
0 STARLINK-32573
1 61725U 24196U   24347.58680933  .00002313  00000-0  67791-4 0  9998
2 61725  53.1614  44.4344 0000841  99.0137 261.0963 15.39618051  7898
Epoch: 2024-12-12T14:05Z
Definitive object data (Epoch: 2024-12-12T14:05:00.326Z)
Latitude-0.00001°
Longitude111.41803°
Altitude448.23 km
Speed7.644 km/s
True Right ascension02h 57m 44s
True Declination0° 00' 00"
Sunlit
Object was in full shadow at TLE epoch
Visualization TLE readout
Latitude29.28927°
Longitude129.9683°
Altitude448.565 km
Speed7.647 km/s
Apparent Right ascension05h 52m 04s
Apparent Declination-4° 27' 53"
Sunlit
Object is in full shadow
Visualization observer readout
Local Sidereal Time19:55:59
Azimuth46.396° ENE
Elevation-44.873°
Doppler factor1
Orbital elements
Apogee altitude448.069 km
Perigee altitude446.921 km
Semi-major axis6,825.632 km
Eccentricity0.0000841
Inclination53.1614°
RAAN44.4344°
Arg. of periapsis99.0137°
True anomaly261.08678°
Mean anomaly261.0963°
Eccentric anomaly261.09154°
Mean motion3.84883 °/min
BSTAR0.000067791
Orbital period93.53 mins
Loading maneuver chart data...
Loading historical data...
Loading historical data...
Loading historical data...
Loading historical data...
Loading historical data...
Loading historical data...
Loading historical data...

STARLINK-32573 Visibility forecast

Observer location: undefined°, undefined

Span
Click to sort rows by Start time (UTC) header in descending order
Start Az.
Max El. time (UTC)
Max El. Az.
Max El.
End time (UTC)
End Az.
4 mins2024-12-14 05:11:15.984Z162.134° S2024-12-14 05:13:15.984Z124.822° SE15.16°2024-12-14 05:15:15.984Z89.565° E
5 mins2024-12-14 06:48:15.984Z254.303° W2024-12-14 06:50:15.984Z337.712° N38.85°2024-12-14 06:53:15.984Z41.525° NE
5 mins2024-12-14 13:20:15.984Z303.111° NW2024-12-14 13:22:15.984Z265.224° W41.79°2024-12-14 13:25:15.984Z140.578° SSE
|